Regional Weather Roundup
Issued by NWS

Home | Current Version | Previous Version | Text Only | Print | Product List | Glossary On
Versions: 1 2 3 4 5 6 7 8 9 10 11 12 13 14 15 16 17 18 19 20 21 22 23 24 25 26 27 28 29 30 31 32 33 34 35 36 37 38 39 40 41 42 43 44 45 46 47 48 49 50
000
ASUS43 KDMX 222001
RWRIA

WEATHER ROUNDUP FOR IOWA
NATIONAL WEATHER SERVICE DES MOINES IA
200 PM CST MON JAN 22 2018

NOTE: "FAIR" INDICATES FEW OR NO CLOUDS BELOW 12,000 FEET WITH NO
SIGNIFICANT WEATHER AND/OR OBSTRUCTIONS TO VISIBILITY.

* - THESE STATIONS ARE NOT NWS STATIONS...THUS NOT UNDER NWS
QUALITY CONTROL.  THEY ALSO DO NOT REPORT WEATHER SUCH
AS PRECIPITATION OR FOG.

IAZ001>003-012>014-020>022-031>034-043>046-222100-
   NORTHWEST IOWA

CITY           SKY/WX    TMP DP  RH WIND       PRES   REMARKS
CARROLL *      LGT SNOW  34  32  93 N31G39    29.42R WCI  20
CHEROKEE *     SNOW      30  29  96 N24G31    29.54R VSB 1/2 WCI  16
DENISON *      LGT RAIN  32  32 100 N29G40    29.46R WCI  18
LE MARS *      SNOW      30  28  93 N32G40    29.57S VSB<1/4 WCI  15
ORANGE CITY *  CLOUDY    28  28 100 N31G40    29.58S WCI  12
SHELDON *      HVY SNOW  28  28 100 N36G41    29.57R VSB<1/4 WCI  12
SIOUX CITY     SNOW      29  28  96 N32G40    29.59R VSB 1/2 WCI  13
SPENCER        FOG       30  28  92 N30G43    29.54S VSB 1/2 WCI  15
STORM LAKE *   SNOW      28  28 100 N31G44    29.48S VSB 1/4 WCI  12
$$

IAZ055>058-069>071-079>083-090>094-222100-
   SOUTHWEST IOWA

CITY           SKY/WX    TMP DP  RH WIND       PRES   REMARKS
ATLANTIC *     MIX PCPN  36  36 100 N23G35    29.39R WCI  24
AUDUBON *      LGT SNOW  34  32  93 N28G37    29.41R WCI  20
CLARINDA *     CLOUDY    37  37 100 NW3       29.38
COUNCIL BLFS * LGT RAIN  32  32 100 N26G33    29.43R WCI  18
CRESTON *      CLOUDY    36  36 100 SW10      29.37R FOG     WCI  28
HARLAN  *      CLOUDY    34  34 100 N30G39    29.44R WCI  20
LAMONI         CLOUDY    36  34  92 S9        29.37F FOG     WCI  29
RED OAK *      MIX PCPN  37  36  93 N18G25    29.39R WCI  27
SHENANDOAH *   PTSUNNY   37  36  93 N17G24    29.39S FOG     WCI  28
$$

IAZ047>049-059>061-072>074-084-222100-
   CENTRAL IOWA

CITY           SKY/WX    TMP DP  RH WIND       PRES   REMARKS
AMES           CLOUDY    39  39 100 E7        29.38R WCI  34
BOONE *        LGT RAIN  37  37 100 NE13      29.37R VSB 1   WCI  29
CHARITON *     CLOUDY    39  34  81 S14G20    29.37F WCI  31
DES MOINES     DRIZZLE   39  36  89 S14       29.38R FOG     WCI  31
GRINNELL*      MOSUNNY   45  35  68 S14G22    29.39S
KNOXVILLE *    CLOUDY    43  34  70 S7G14     29.37S
MARSHALLTOWN   CLOUDY    39  39 100 NE14      29.38R WCI  31
NEWTON *       CLOUDY    43  36  75 S14       29.38R
PELLA *        CLOUDY    44  34  68 S10       29.40R
$$

IAZ004>006-015-016-023>025-035-036-222100-
   NORTH CENTRAL IOWA

CITY           SKY/WX    TMP DP  RH WIND       PRES   REMARKS
ALGONA *       LGT SNOW  32 N/A N/A N28G37    29.49R VSB 3/4 WCI  18
CLARION *      CLOUDY    34  34 100 NE29      29.43S FOG     WCI  20
ESTHERVILLE    FOG       27  27 100 N36G45    29.52F VSB 1/4 WCI  10
FORT DODGE *   MIX PCPN  33  32  96 N20G28    29.44R FOG     WCI  21
MASON CITY     CLOUDY    33  33 100 N24       29.48F WCI  20
FOREST CITY *  LGT SNOW  34  32  93 NE18G25   29.48F WCI  23
IOWA FALLS *   CLOUDY    37  36  96 NE16G22   29.41S FOG     WCI  27
$$

IAZ007>011-017>019-026>030-037>042-050>054-066-222100-
   NORTHEAST IOWA

CITY           SKY/WX    TMP DP  RH WIND       PRES   REMARKS
CEDAR RAPIDS   PTSUNNY   47  39  74 SW12      29.39R
CHARLES CITY * LGT SNOW  34  34 100 NE14G23   29.45F WCI  24
CLINTON *      PTSUNNY   56  44  64 SW18G26   29.39F
DECORAH *      CLOUDY    34  34 100 NE9       29.45R WCI  26
DUBUQUE        FOG       40  40 100 NE8       29.40F VSB<1/4 WCI  34
MONTICELLO *   CLOUDY    45  45 100 CALM      29.40S
OELWEIN *      PTSUNNY   37  37 100 NE13G21   29.41F WCI  29
WATERLOO       CLOUDY    38  36  92 NE7       29.40F WCI  33
$$

IAZ064-065-067-068-078-222100-
   EAST CENTRAL IOWA

CITY           SKY/WX    TMP DP  RH WIND       PRES   REMARKS
DAVENPORT        N/A     53  41  63 W20       29.41S
IOWA CITY        N/A     49  34  56 SW17      29.42S
MT. PLEASANT * PTSUNNY   45  32  61 SW23      29.43S
MUSCATINE *      N/A     52  34  50 SW18G26   29.42S
QUAD CITIES      N/A     56  41  57 SW18G28   29.39F
$$

IAZ062-063-075>077-085>089-095>099-222100-
   SOUTHEAST IOWA

CITY           SKY/WX    TMP DP  RH WIND       PRES   REMARKS
BURLINGTON     MOSUNNY   49  33  54 SW23G36   29.42R
FAIRFIELD *    CLOUDY    45  30  57 SW17      29.41F
FORT MADISON * CLOUDY    46  32  57 SW20G28   29.45R
KEOKUK *       CLOUDY    45  30  57 SW20G31   29.44S
OSKALOOSA *    PTSUNNY   42  32  68 SW18      29.40F
OTTUMWA        CLOUDY    42  31  64 SW14      29.40F
WASHINGTON *   PTSUNNY   46  34  61 SW17G26   29.42F
$$

ABBREVIATIONS USED IN REMARKS
   TC - TEMPERATURES IN CELSIUS
  WCI - WIND CHILL INDEX
   HX - HEAT INDEX
  VSB - VISIBILITY
$$





USA.gov is the U.S. government's official web portal to all federal, state and local government web resources and services.